sat.trackr.live / text

‹ back to catalog

QIANFAN-119

NORAD 68646 · 2026-075L

PAYLOAD ACTIVE UNKNOWN

§ Identity

Operator
Country
PRC
Launch date
2026-04-07
Launch site
WSC
Launch vehicle
Mass (kg)
RCS (m²)

External: N2YO · Heavens-Above · Gunter

§ Orbital elements

Epoch: 2026-05-24T19:09:19.829952Z

Period
105.81 min
Inclination
88.9877°
Eccentricity
0.0004095
Mean motion
13.60932334 rev/d
Perigee alt
1,029.3 km
Apogee alt
1,035.3 km
Semi-major
7,410.4 km
B*
-2.9898e+0
RAAN
323.4013°
Arg perigee
138.7087°
Mean anomaly
221.4380°
Rev number
664

§ Raw data

QIANFAN-1191 68646U 26075L   26144.79814618 -.02111825  00000+0 -29898+1 0  99982 68646  88.9877 323.4013 0004095 138.7087 221.4380 13.60932334  6647

JSON: /api/v1/satellites/68646 · /tle

For live sub-satellite position, see the globe view (requires WebGL).

§ Visibility from observer

Set your observer location to see the next 7 days of passes ≥ 10°. The values pass through the URL so the page stays shareable.

No JS? Fill the form by hand. The geolocation button needs JavaScript.